This is the latest recevied weather packets stored in our database for station/object K5RWS. If no packets are shown the sender has not sent any weather packets the latest 10 day(s).
| Time | Temp. | Humidity | Pressure | Rain* | Wind** | Luminosity | Snow |
|---|---|---|---|---|---|---|---|
| 1778011400 | 14.44° C | 48% | 1014.1 hPa | 0 mm | - | 576 W/m² | - |
| 1778011095 | 14.44° C | 49% | 1014.2 hPa | 0 mm | - | 346 W/m² | - |
| 1778010794 | 14.44° C | 48% | 1014.5 hPa | 0 mm | - | 295 W/m² | - |
| 1778010490 | 14.44° C | 47% | 1014.1 hPa | 0 mm | - | 314 W/m² | - |
| 1778010188 | 15° C | 47% | 1014.3 hPa | 0 mm | - | 534 W/m² | - |
| 1778009883 | 14.44° C | 45% | 1014.3 hPa | 0 mm | - | 446 W/m² | - |
| 1778009581 | 14.44° C | 46% | 1014.5 hPa | 0 mm | - | 342 W/m² | - |
| 1778009279 | 14.44° C | 45% | 1014.6 hPa | 0 mm | - | 321 W/m² | - |
| 1778008976 | 15.56° C | 42% | 1014.3 hPa | 0 mm | - | 729 W/m² | - |
| 1778008674 | 14.44° C | 46% | 1014.2 hPa | 0 mm | - | 370 W/m² | - |
| 1778008372 | 13.89° C | 47% | 1014.3 hPa | 0 mm | - | 384 W/m² | - |
| 1778008068 | 15° C | 46% | 1014.5 hPa | 0 mm | - | 370 W/m² | - |
| 1778007763 | 15° C | 46% | 1014.3 hPa | 0 mm | - | 425 W/m² | - |
| 1778007460 | 15° C | 44% | 1014.3 hPa | 0 mm | - | 707 W/m² | - |
| 1778007157 | 14.44° C | 46% | 1014.5 hPa | 0 mm | - | 600 W/m² | - |
| 1778006852 | 13.89° C | 46% | 1014.3 hPa | 0 mm | - | 450 W/m² | - |
| 1778006550 | 14.44° C | 46% | 1014.6 hPa | 0 mm | - | 297 W/m² | - |
| 1778006247 | 15° C | 42% | 1014.5 hPa | 0 mm | - | 288 W/m² | - |
| 1778005944 | 15° C | 43% | 1014.2 hPa | 0 mm | - | 305 W/m² | - |
| 1778005640 | 15° C | 44% | 1014.2 hPa | 0 mm | - | 314 W/m² | - |
| 1778005338 | 15° C | 44% | 1014.5 hPa | 0 mm | - | 404 W/m² | - |
| 1778005034 | 16.11° C | 42% | 1014.6 hPa | 0 mm | - | 593 W/m² | - |
| 1778004732 | 16.67° C | 40% | 1014.6 hPa | 0 mm | - | 814 W/m² | - |
| 1778004428 | 15° C | 43% | 1014.3 hPa | 0 mm | - | 602 W/m² | - |
| 1778004125 | 15° C | 43% | 1014.1 hPa | 0 mm | - | 613 W/m² | - |
* Rain latest hour (hover to see other rain measurements)
** Current wind speed in m/s (hover to see current wind gust speed)